Wind_Speed
42 41 40 41 44 46 49 44 43 43 45 46 48 50 52 54 57 59 61 61 63 67 70 73 77 79 79 80 77 72 70 62 51 45 44 46 49 49 47 49 53 52 47
45 45 45 46 46 45 45 44 44 47 49 50 51 51 54 56 58 59 62 65 68 71 74 78 80 80 82 77 72 72 63 53 50 48 49 52 54 56 58 57 60 59 57
47 49 52 53 50 50 50 49 51 52 51 53 54 56 59 60 63 65 67 70 73 76 79 81 82 84 79 74 75 66 56 55 55 56 56 56 56 55 57 58 61 64 63
51 55 57 51 49 50 50 50 51 53 55 57 59 61 63 66 68 70 73 76 78 81 83 84 86 81 78 80 69 60 59 60 61 62 63 63 64 64 64 65 65 63 63
57 60 56 51 51 52 53 55 56 57 59 61 63 65 68 70 73 75 78 80 82 84 86 84 78 80 79 65 62 63 63 63 63 64 65 66 67 69 69 71 70 69 66
54 53 52 52 54 55 56 58 59 61 63 64 66 69 71 74 77 79 81 83 85 87 83 80 82 76 68 65 64 65 66 67 67 67 67 69 73 73 74 74 75 73 73
54 53 53 54 56 57 60 61 63 66 68 70 72 74 76 78 80 82 84 88 87 83 82 83 75 68 70 70 70 70 72 73 75 76 77 76 78 77 78 80 81 78 78
57 56 57 58 60 63 65 67 69 71 72 73 74 76 78 81 84 87 90 87 83 85 77 71 70 71 73 73 75 77 79 81 81 82 84 86 85 87 87 87 86 85 84
61 61 61 63 65 66 67 67 68 70 72 75 77 80 83 86 90 88 83 85 81 72 72 72 74 77 79 82 85 86 87 89 90 90 93 93 92 91 91 93 93 91 87
64 65 67 69 68 68 69 71 74 76 79 81 83 86 90 89 84 85 85 77 73 73 75 78 81 84 87 90 92 93 94 95 97 98 99 99 99 100 104 102 99 98 95
66 68 69 69 71 72 74 77 80 82 84 87 90 90 85 86 82 75 73 75 76 79 82 86 89 92 94 96 98 101 103 105 105 107 107 108 109 110 111 111 111 112 109
70 71 72 73 74 78 81 83 85 88 91 89 85 86 85 74 73 76 77 81 84 87 92 95 97 99 103 107 109 110 111 113 115 119 118 116 116 118 122 120 121 119 118
74 76 77 79 81 84 86 89 91 86 84 87 84 75 74 76 78 82 85 88 92 96 99 102 106 109 113 116 119 122 125 125 125 127 127 127 128 128 130 127 120 117 116
78 79 82 84 86 88 87 82 84 86 79 72 73 76 79 82 86 89 91 95 102 103 107 110 114 116 118 122 126 130 131 132 133 134 135 134 132 132 132 128 126 123 117
80 82 82 79 78 81 84 80 70 70 74 78 79 82 85 89 92 95 100 104 109 112 115 120 124 127 129 131 136 139 135 135 137 138 137 133 132 130 128 125 123 122 120
73 76 79 78 73 66 65 68 70 72 76 80 85 89 94 97 101 105 109 114 117 120 125 129 132 134 137 142 143 144 144 145 145 136 131 129 127 129 127 127 125 123 121
54 56 59 61 63 67 71 73 76 80 84 88 93 98 101 104 108 111 115 121 125 129 133 136 138 139 140 144 148 149 147 144 138 133 130 128 127 125 125 125 123 121 120
57 60 62 66 70 73 77 81 85 89 92 97 104 107 109 111 114 118 124 127 132 137 138 137 139 145 147 146 145 140 135 131 129 130 128 127 125 123 122 117 113 110 110
65 68 71 75 79 83 87 90 92 96 101 107 109 111 114 117 122 126 130 136 139 140 141 143 147 148 145 144 139 138 136 131 130 127 124 121 117 116 115 108 102 98 96
74 76 78 80 84 89 94 98 101 103 105 109 112 116 120 125 129 134 137 140 142 143 147 149 150 148 145 142 137 133 128 124 121 116 116 114 108 102 99 95 91 87 86
80 83 87 90 93 93 95 100 104 107 111 114 118 123 128 131 134 137 141 145 147 148 151 149 141 138 136 131 126 122 120 116 111 105 101 98 95 91 88 86 81 78 77
86 88 90 92 95 99 102 106 110 112 114 118 122 126 130 135 139 143 145 148 152 152 149 141 135 130 124 119 117 111 106 102 96 90 88 87 85 83 80 78 75 72 68
91 93 97 101 104 107 109 112 115 117 121 124 127 131 134 138 141 142 143 146 147 139 137 130 122 115 113 107 101 98 95 91 87 83 80 77 75 72 70 69 68 66 63
99 105 108 110 111 114 115 117 121 123 126 126 130 133 137 141 143 144 140 139 133 126 121 114 110 104 99 95 91 87 84 82 79 75 71 69 67 65 64 63 62 61 59
105 104 108 112 115 116 118 119 120 124 128 134 139 142 140 141 139 140 132 125 123 116 108 104 97 91 88 83 79 76 73 71 69 66 64 61 59 58 57 57 58 58 56
104 106 104 105 105 111 116 120 122 125 129 135 140 142 139 135 128 123 120 114 110 105 98 93 88 81 74 71 71 70 68 65 61 58 55 53 52 51 50 50 50 49 48
Wind_Direction
249 256 261 261 263 267 268 269 273 276 280 283 283 283 284 285 286 289 291 296 299 299 302 304 306 308 309 310 311 311 312 311 311 307 304 307 308 307 310 314 317 315 315
249 254 259 263 265 267 268 273 278 279 281 281 282 284 286 288 291 294 297 298 299 302 302 304 306 307 308 308 309 310 309 309 310 307 307 310 312 314 312 312 314 315 313
250 254 258 259 261 265 268 272 275 278 281 283 284 287 291 293 294 294 297 298 300 300 302 303 305 306 306 307 308 307 307 309 308 308 308 306 305 304 304 304 307 308 308
250 254 259 262 266 271 275 277 279 282 282 284 285 287 290 292 294 296 296 297 299 300 302 304 304 306 307 307 305 305 308 309 308 307 307 306 306 307 306 305 304 303 303
252 254 258 262 268 273 277 280 282 283 284 285 286 289 290 292 293 294 296 298 299 301 303 304 304 305 306 307 309 309 307 306 305 305 304 303 303 303 302 302 301 301 301
251 255 260 266 271 275 278 280 281 284 287 289 290 291 291 292 293 295 296 299 300 302 302 302 303 303 304 304 302 304 303 302 301 300 300 299 300 300 300 300 300 300 300
257 261 265 269 273 277 280 282 284 286 287 289 289 290 291 292 294 295 297 299 301 300 300 301 302 302 304 303 302 301 302 301 301 301 299 299 300 299 299 299 299 299 299
258 262 267 271 275 279 281 282 284 285 286 288 289 289 291 293 295 296 298 299 298 299 300 300 300 299 299 298 297 296 297 297 297 298 298 297 298 298 298 297 296 295 293
262 265 269 272 276 279 281 282 284 285 287 288 289 291 293 294 296 298 296 297 297 297 296 296 296 297 297 298 300 299 299 298 298 297 296 296 296 296 296 295 294 292 290
265 268 272 274 276 277 280 282 285 287 288 290 291 292 294 295 294 294 295 294 293 295 295 295 296 297 297 298 299 297 296 297 296 296 295 294 293 293 295 293 290 289 288
267 270 272 274 276 279 282 284 285 287 289 290 292 293 292 292 293 291 291 292 293 295 296 297 297 297 296 296 296 295 294 293 294 296 295 293 293 293 293 292 290 289 287
268 271 273 276 279 280 282 284 286 287 289 291 290 290 292 289 288 291 294 296 297 297 297 296 295 295 295 295 294 294 294 294 293 294 295 294 294 294 294 291 291 287 285
268 272 275 277 279 281 283 284 287 288 287 289 290 287 289 292 293 294 295 296 296 296 297 296 295 294 294 294 294 294 295 296 296 295 295 295 293 292 293 290 289 286 285
269 272 274 276 279 281 283 283 283 286 287 286 289 292 293 293 292 293 293 293 295 295 293 294 295 294 293 295 295 296 296 297 297 296 294 293 292 291 290 289 288 287 284
270 273 276 277 278 279 281 284 283 284 288 290 291 290 290 291 291 291 291 293 294 294 294 295 295 296 296 296 297 297 296 296 297 296 295 293 293 293 291 288 286 285 284
272 273 274 276 279 281 283 287 288 288 289 290 290 290 289 289 290 291 291 293 294 294 294 296 297 297 297 296 296 295 295 296 297 296 294 293 292 290 289 288 287 286 285
273 277 280 283 284 287 286 287 288 288 288 289 291 292 292 291 292 291 291 291 293 295 296 298 298 298 298 298 298 298 298 297 296 295 293 291 290 289 287 286 285 285 285
281 282 284 284 283 282 282 283 285 287 288 290 293 294 293 292 292 292 292 293 295 295 296 297 297 298 299 299 299 298 296 295 294 293 292 291 291 289 289 287 286 285 283
275 277 280 281 283 284 285 286 286 287 288 291 291 291 291 292 292 292 293 293 294 295 296 299 300 301 302 301 299 298 297 296 296 294 294 293 291 290 289 289 287 285 282
278 280 281 283 284 284 285 286 287 288 289 290 291 291 292 292 292 292 292 294 295 295 299 299 302 302 301 300 298 297 296 295 295 295 293 292 291 290 289 288 286 285 283
279 280 281 283 284 286 287 287 288 289 290 291 291 291 292 292 292 292 292 295 296 297 298 301 301 301 300 298 297 296 296 296 295 294 293 292 291 290 289 289 288 286 284
283 284 284 285 285 286 289 290 290 289 290 290 291 291 291 292 292 293 294 295 298 300 302 303 301 301 299 299 298 297 296 296 296 294 293 292 291 290 290 288 287 284 282
281 282 284 286 286 287 288 289 290 290 288 288 289 291 293 293 294 295 297 297 300 302 302 302 301 301 301 300 299 298 297 297 296 295 293 292 290 289 288 286 283 281 279
281 283 284 286 286 286 287 287 288 288 287 290 290 292 292 293 293 296 300 302 302 302 302 302 302 302 301 299 298 297 296 295 295 295 295 294 292 290 287 285 284 283 281
282 285 285 285 285 285 286 287 288 287 287 288 288 290 293 295 296 299 302 301 302 302 303 303 303 302 301 300 299 298 298 297 296 296 295 294 291 289 286 285 284 283 282
283 284 286 287 287 289 288 288 289 290 290 290 291 293 296 299 300 302 302 303 303 303 304 304 304 303 302 303 302 302 301 300 299 298 296 294 291 288 286 284 283 282 282
Height
10746 10748 10750 10751 10751 10752 10751 10749 10749 10748 10747 10745 10743 10740 10738 10736 10733 10730 10726 10721 10717 10712 10707 10701 10695 10688 10681 10674 10667 10661 10656 10651 10646 10642 10638 10634 10630 10625 10620 10614 10608 10604 10601
10737 10741 10742 10742 10742 10742 10742 10741 10740 10739 10737 10735 10733 10731 10728 10725 10721 10717 10713 10709 10705 10700 10694 10687 10681 10674 10667 10661 10654 10647 10641 10637 10633 10631 10627 10622 10617 10611 10607 10604 10598 10593 10590
10730 10732 10733 10733 10733 10733 10732 10732 10730 10729 10727 10725 10723 10720 10716 10713 10709 10705 10701 10696 10692 10686 10679 10673 10666 10659 10653 10647 10641 10634 10628 10623 10619 10615 10612 10608 10605 10602 10598 10594 10588 10583 10578
10721 10722 10723 10724 10724 10723 10722 10721 10720 10718 10716 10714 10711 10708 10704 10700 10696 10692 10687 10683 10677 10671 10664 10657 10651 10644 10638 10632 10626 10620 10616 10611 10606 10602 10598 10594 10590 10587 10584 10581 10577 10574 10568
10712 10713 10715 10714 10715 10714 10713 10712 10710 10707 10704 10702 10699 10695 10691 10687 10683 10677 10673 10667 10662 10655 10648 10641 10635 10628 10622 10616 10611 10606 10602 10597 10592 10587 10583 10578 10574 10571 10568 10564 10562 10558 10555
10702 10703 10704 10705 10705 10704 10703 10701 10698 10695 10692 10689 10685 10681 10677 10672 10667 10662 10657 10651 10645 10638 10631 10624 10618 10611 10606 10600 10595 10590 10585 10581 10576 10572 10567 10562 10557 10553 10549 10546 10541 10538 10535
10693 10694 10695 10695 10694 10693 10691 10688 10686 10682 10679 10675 10671 10666 10662 10657 10652 10646 10640 10634 10627 10620 10614 10608 10602 10596 10591 10585 10580 10575 10569 10564 10559 10554 10550 10544 10540 10535 10530 10528 10524 10520 10515
10683 10685 10686 10685 10683 10681 10678 10675 10672 10668 10665 10660 10656 10651 10647 10641 10635 10629 10622 10616 10610 10604 10597 10591 10585 10579 10573 10567 10562 10556 10551 10545 10540 10534 10529 10524 10520 10515 10510 10506 10504 10501 10496
10675 10675 10675 10673 10671 10668 10664 10661 10658 10654 10650 10646 10641 10636 10630 10624 10618 10611 10604 10598 10592 10585 10579 10573 10567 10560 10553 10547 10541 10535 10529 10523 10518 10512 10507 10502 10496 10492 10488 10483 10480 10478 10479
10665 10664 10662 10660 10656 10653 10650 10647 10643 10639 10635 10630 10625 10619 10612 10605 10599 10593 10586 10579 10572 10566 10560 10553 10546 10539 10532 10525 10519 10512 10506 10501 10494 10489 10483 10477 10471 10467 10461 10457 10453 10450 10450
10654 10652 10648 10645 10642 10639 10636 10632 10628 10623 10618 10612 10607 10600 10593 10587 10580 10572 10566 10559 10553 10546 10540 10533 10525 10517 10509 10501 10495 10488 10482 10476 10468 10462 10456 10451 10441 10437 10431 10425 10423 10418 10415
10640 10636 10633 10630 10628 10625 10621 10616 10612 10606 10601 10594 10587 10581 10574 10566 10559 10553 10545 10538 10532 10525 10518 10510 10502 10493 10485 10476 10468 10460 10454 10447 10440 10432 10424 10418 10410 10402 10395 10389 10385 10382 10377
10625 10622 10619 10617 10613 10609 10605 10600 10594 10587 10580 10575 10568 10561 10554 10548 10540 10532 10525 10517 10510 10503 10495 10486 10477 10468 10458 10448 10437 10427 10420 10413 10405 10396 10390 10381 10371 10365 10358 10350 10345 10341 10337
10611 10609 10606 10602 10598 10593 10587 10581 10575 10570 10563 10557 10550 10542 10535 10527 10519 10512 10504 10496 10487 10478 10470 10460 10451 10439 10429 10417 10405 10394 10385 10377 10368 10359 10350 10340 10331 10322 10313 10307 10302 10297 10296
10597 10595 10591 10585 10580 10575 10570 10564 10558 10552 10545 10539 10530 10522 10513 10506 10498 10489 10480 10470 10461 10451 10441 10431 10420 10409 10398 10384 10370 10357 10348 10339 10331 10319 10306 10297 10287 10278 10267 10260 10258 10253 10251
10582 10577 10573 10568 10563 10558 10553 10547 10540 10533 10526 10519 10510 10501 10492 10483 10473 10463 10452 10441 10430 10420 10410 10398 10386 10374 10360 10344 10329 10315 10307 10298 10290 10280 10267 10254 10245 10234 10225 10215 10209 10207 10204
10564 10561 10557 10553 10547 10542 10536 10528 10521 10514 10506 10498 10489 10479 10470 10459 10447 10436 10423 10411 10400 10389 10376 10363 10348 10336 10322 10305 10288 10272 10259 10251 10242 10234 10224 10213 10204 10195 10185 10177 10172 10168 10160
10550 10545 10540 10535 10529 10522 10515 10508 10501 10494 10485 10476 10466 10455 10443 10431 10418 10406 10393 10380 10368 10355 10343 10332 10316 10299 10289 10270 10252 10233 10218 10209 10202 10191 10179 10167 10159 10149 10137 10135 10135 10129 10123
10531 10526 10520 10514 10509 10503 10495 10487 10480 10471 10463 10451 10439 10426 10413 10402 10389 10375 10363 10348 10335 10323 10308 10295 10280 10261 10248 10229 10209 10193 10176 10165 10157 10148 10136 10123 10115 10107 10097 10094 10093 10089 10083
10513 10507 10501 10495 10490 10482 10474 10465 10456 10447 10435 10424 10411 10397 10384 10371 10358 10344 10330 10316 10301 10290 10274 10263 10247 10227 10207 10189 10172 10153 10136 10127 10120 10114 10098 10086 10077 10070 10064 10059 10056 10055 10048
10492 10485 10480 10475 10467 10458 10449 10440 10430 10420 10408 10396 10381 10367 10351 10338 10324 10313 10296 10282 10267 10256 10243 10229 10215 10193 10171 10150 10133 10117 10099 10090 10086 10077 10065 10053 10045 10038 10032 10028 10026 10025 10021
10470 10463 10456 10450 10442 10434 10425 10415 10404 10392 10379 10365 10351 10336 10321 10306 10291 10278 10265 10249 10233 10220 10207 10187 10170 10152 10132 10115 10098 10083 10069 10059 10054 10046 10035 10026 10017 10011 10007 10002 9999 9997 9996
10447 10439 10432 10426 10418 10407 10398 10388 10376 10364 10350 10335 10320 10306 10292 10275 10259 10244 10230 10217 10200 10185 10170 10150 10132 10116 10097 10081 10065 10054 10042 10033 10025 10019 10010 10003 9994 9988 9983 9978 9974 9972 9972
10424 10415 10406 10397 10389 10379 10369 10359 10348 10335 10320 10305 10289 10274 10260 10245 10227 10214 10198 10183 10162 10148 10131 10114 10099 10084 10068 10053 10042 10030 10019 10009 10001 9995 9989 9980 9973 9967 9962 9957 9952 9950 9949
10396 10388 10379 10368 10359 10349 10339 10328 10316 10302 10287 10272 10258 10242 10227 10214 10204 10187 10168 10149 10124 10109 10099 10085 10070 10060 10044 10029 10018 10007 9998 9989 9981 9975 9968 9961 9953 9947 9943 9938 9934 9931 9929
10368 10358 10349 10339 10330 10320 10307 10296 10283 10269 10253 10236 10222 10210 10195 10184 10170 10156 10139 10112 10093 10078 10069 10057 10045 10034 10023 10010 9997 9986 9976 9969 9964 9957 9951 9944 9937 9932 9927 9923 9920 9917 9914